Погода в Кайралах

Россия / Мурманская область     66°55′25″N   29°35′28″E
темп.,
°C
ветер,
м/с
пор.,
м/с
влажн.,
%
обл.,
%
осадки,
мм/ч
давл.,
гПа
погр.,
м
23 января, сб
сб2300:00−15вюв71690100 0.2 1008833
03:00−15вюв81790100 0.4 1008793
06:00−16вюв92188100 0.1 1004774
09:00−14вюв91987100 0.3 1004738
12:00−15вюв81789100 0.7 1003841
15:00−15вюв61490100 0.8 1002720
18:00−15вюв71490100 0.2 1000609
21:00−15вюв71492100 0.4 1000517
24 января, вс
вс2400:00−14юв4119398 0.3 1001380
03:00−14вюв379497 0.4 1002317
06:00−16юв4895100 0.6 998289
09:00−15вюв3694100 0.9 999210
12:00−14вюв239699 0.2 1000145
15:00−9вюв229699 0.2 100397
18:00−12вюв1296100 0.3 100148
21:00−11юв229796 0.3 100144
25 января, пн
пн2500:00−10в129799 0.1 100121
03:00−8в1296100 0.5 100383
06:00−8в129695 0.1 100033
09:00−9в129690 0.6 100321
12:00−9в119789 0.0 100421
15:00−4всв1397100 1.8 1000156
18:00−4в1197100 1.2 100048
21:00−5в1197100 1.9 100121
26 января, вт
вт2600:00−5в1197100 0.3 100221
03:00−3в1297100 0.6 100261
06:000ю2598100 0.3 1004295
09:000ю2698100 0.9 1003353
12:00−1ююз2798100 0.6 1004380
15:00−4ю2297100 0.7 100528
18:00−6ю129794 0.0 100521
21:00−6ююз119795 0.1 100724
27 января, ср
ср2700:00−4ю1196100 0.1 100721
03:00−4всв1196100 0.1 100721
06:00−1вюв4998100 0.5 1007533
09:00−7юв1196100 0.1 100821
12:00−6ссв1197100 0.2 100625
15:00−3вюв4109495 0.2 1006423
18:00−6св1297100 0.2 100525
21:00−9всв119797 0.0 100721